When you browse on this site, cookies collect data to enhance your experience and personalize the content and advertising you see.
Visit our Privacy Policy to learn more. By continuing to use the site, you agree to this use of cookies and data.
  • In Portugal
  • List of Countries
  • For 7 days
  • Water Temperature
  • Satellite Maps
  • Weather Map
  • Weather Widgets
  • user-avatar
    Login

    Hourly Weather Syugut

    Today, 19 June, Wednesday

    Time Temperature Precipitation Wind Pressure Humidity
    00:00 +11°C° 0.1 mm 0 mps 614 mmHg 88%
    01:00 +12°C° 0 mm 1 mps 614 mmHg 88%
    02:00 +12°C° 0 mm 1 mps 614 mmHg 88%
    03:00 +11°C° 0 mm 1 mps 614 mmHg 88%
    04:00 +13°C° 0 mm 1 mps 615 mmHg 85%
    05:00 +13°C° 0 mm 0 mps 615 mmHg 82%
    06:00 +15°C° 0 mm 0 mps 616 mmHg 78%
    07:00 +16°C° 0.4 mm 1 mps 616 mmHg 77%
    08:00 +18°C° 0.4 mm 1 mps 617 mmHg 76%
    09:00 +18°C° 0.4 mm 2 mps 617 mmHg 75%
    10:00 +18°C° 1.4 mm 2 mps 617 mmHg 76%
    11:00 +19°C° 1.4 mm 2 mps 617 mmHg 76%
    12:00 +19°C° 1.4 mm 2 mps 617 mmHg 77%
    13:00 +18°C° 2.1 mm 2 mps 616 mmHg 78%
    14:00 +19°C° 2.1 mm 1 mps 616 mmHg 79%
    15:00 +19°C° 2.1 mm 1 mps 616 mmHg 80%
    16:00 +18°C° 1 mm 1 mps 616 mmHg 81%
    17:00 +18°C° 1 mm 1 mps 616 mmHg 81%
    18:00 +16°C° 1 mm 0 mps 616 mmHg 82%
    19:00 +16°C° 0.1 mm 1 mps 615 mmHg 83%
    20:00 +15°C° 0.1 mm 1 mps 615 mmHg 84%
    21:00 +13°C° 0.1 mm 1 mps 615 mmHg 85%
    22:00 +13°C° 0 mm 1 mps 615 mmHg 84%
    23:00 +13°C° 0 mm 1 mps 615 mmHg 84%

    Tomorrow, 20 June, Thursday

    Time Temperature Precipitation Wind Pressure Humidity
    00:00 +13°C° 0 mm 1 mps 615 mmHg 84%
    01:00 +12°C° 0 mm 1 mps 614 mmHg 85%
    02:00 +12°C° 0 mm 1 mps 614 mmHg 86%
    03:00 +11°C° 0 mm 1 mps 614 mmHg 87%
    04:00 +13°C° 0 mm 1 mps 614 mmHg 85%
    05:00 +14°C° 0 mm 1 mps 615 mmHg 83%
    06:00 +16°C° 0 mm 1 mps 616 mmHg 80%
    07:00 +18°C° 0.1 mm 1 mps 616 mmHg 76%
    08:00 +19°C° 0.1 mm 1 mps 616 mmHg 72%
    09:00 +19°C° 0.1 mm 2 mps 617 mmHg 68%
    10:00 +20°C° 0.7 mm 2 mps 617 mmHg 68%
    11:00 +20°C° 0.7 mm 2 mps 617 mmHg 67%
    12:00 +20°C° 0.7 mm 2 mps 617 mmHg 66%
    13:00 +21°C° 0.7 mm 2 mps 617 mmHg 64%
    14:00 +21°C° 0.7 mm 2 mps 616 mmHg 62%
    15:00 +21°C° 0.7 mm 2 mps 616 mmHg 59%
    16:00 +21°C° 0.2 mm 2 mps 616 mmHg 62%
    17:00 +20°C° 0.2 mm 2 mps 616 mmHg 64%
    18:00 +19°C° 0.2 mm 2 mps 616 mmHg 66%
    19:00 +18°C° 0 mm 1 mps 615 mmHg 71%
    20:00 +15°C° 0 mm 1 mps 615 mmHg 75%
    21:00 +13°C° 0 mm 1 mps 614 mmHg 80%
    22:00 +13°C° 0 mm 1 mps 614 mmHg 80%
    23:00 +13°C° 0 mm 1 mps 614 mmHg 79%

    Day after tomorrow, 21 June, Friday

    Time Temperature Precipitation Wind Pressure Humidity
    00:00 +13°C° 0 mm 1 mps 614 mmHg 79%
    01:00 +13°C° 0 mm 1 mps 614 mmHg 79%
    02:00 +12°C° 0 mm 1 mps 614 mmHg 79%
    03:00 +12°C° 0 mm 1 mps 614 mmHg 80%
    04:00 +13°C° 0 mm 1 mps 614 mmHg 78%
    05:00 +15°C° 0 mm 1 mps 615 mmHg 76%
    06:00 +16°C° 0 mm 1 mps 616 mmHg 75%
    07:00 +17°C° 0.1 mm 2 mps 616 mmHg 70%
    08:00 +18°C° 0.1 mm 2 mps 617 mmHg 66%
    09:00 +19°C° 0.1 mm 2 mps 617 mmHg 61%
    10:00 +20°C° 0.8 mm 2 mps 617 mmHg 62%
    11:00 +20°C° 0.8 mm 2 mps 617 mmHg 63%
    12:00 +20°C° 0.8 mm 2 mps 617 mmHg 64%
    13:00 +20°C° 1.1 mm 2 mps 617 mmHg 65%
    14:00 +20°C° 1.1 mm 2 mps 617 mmHg 67%
    15:00 +20°C° 1.1 mm 2 mps 617 mmHg 68%
    16:00 +19°C° 0.6 mm 2 mps 617 mmHg 71%
    17:00 +19°C° 0.6 mm 1 mps 617 mmHg 74%
    18:00 +19°C° 0.6 mm 1 mps 617 mmHg 77%
    19:00 +16°C° 0 mm 1 mps 616 mmHg 80%
    20:00 +15°C° 0 mm 1 mps 616 mmHg 84%
    21:00 +14°C° 0 mm 1 mps 616 mmHg 87%
    22:00 +13°C° 0 mm 1 mps 615 mmHg 86%
    23:00 +13°C° 0 mm 2 mps 615 mmHg 86%

    22 June, Saturday

    Time Temperature Precipitation Wind Pressure Humidity
    00:00 +12°C° 0 mm 2 mps 615 mmHg 85%
    01:00 +12°C° 0 mm 2 mps 615 mmHg 84%
    02:00 +12°C° 0 mm 1 mps 615 mmHg 82%
    03:00 +12°C° 0 mm 1 mps 615 mmHg 81%
    04:00 +13°C° 0 mm 1 mps 615 mmHg 77%
    05:00 +14°C° 0 mm 1 mps 616 mmHg 73%
    06:00 +16°C° 0 mm 1 mps 617 mmHg 69%
    07:00 +18°C° 0 mm 1 mps 618 mmHg 66%
    08:00 +19°C° 0 mm 2 mps 618 mmHg 63%
    09:00 +20°C° 0 mm 2 mps 619 mmHg 60%
    10:00 +21°C° 0.7 mm 2 mps 619 mmHg 61%
    11:00 +21°C° 0.7 mm 2 mps 619 mmHg 63%
    12:00 +21°C° 0.7 mm 2 mps 619 mmHg 64%
    13:00 +21°C° 1.3 mm 2 mps 618 mmHg 65%
    14:00 +21°C° 1.3 mm 2 mps 618 mmHg 68%
    15:00 +22°C° 1.3 mm 1 mps 618 mmHg 70%
    16:00 +21°C° 1 mm 1 mps 618 mmHg 71%
    17:00 +21°C° 1 mm 1 mps 618 mmHg 72%
    18:00 +21°C° 1 mm 1 mps 617 mmHg 73%
    19:00 +19°C° 0.2 mm 1 mps 617 mmHg 76%
    20:00 +16°C° 0.2 mm 1 mps 617 mmHg 80%
    21:00 +14°C° 0.2 mm 0 mps 616 mmHg 83%
    22:00 +14°C° 0 mm 1 mps 616 mmHg 84%
    23:00 +14°C° 0 mm 1 mps 616 mmHg 84%

    23 June, Sunday

    Time Temperature Precipitation Wind Pressure Humidity
    00:00 +14°C° 0 mm 1 mps 616 mmHg 84%
    01:00 +14°C° 0 mm 1 mps 616 mmHg 83%
    02:00 +14°C° 0 mm 1 mps 616 mmHg 83%
    03:00 +13°C° 0 mm 1 mps 616 mmHg 82%
    04:00 +15°C° 0 mm 1 mps 616 mmHg 79%
    05:00 +16°C° 0 mm 1 mps 617 mmHg 75%
    06:00 +19°C° 0 mm 1 mps 618 mmHg 71%
    07:00 +20°C° 0.2 mm 1 mps 618 mmHg 68%
    08:00 +21°C° 0.2 mm 1 mps 619 mmHg 66%
    09:00 +21°C° 0.2 mm 2 mps 619 mmHg 63%
    10:00 +23°C° 1.3 mm 2 mps 619 mmHg 63%
    11:00 +23°C° 1.3 mm 2 mps 619 mmHg 63%
    12:00 +23°C° 1.3 mm 2 mps 619 mmHg 63%
    13:00 +23°C° 1 mm 2 mps 619 mmHg 63%
    14:00 +23°C° 1 mm 2 mps 619 mmHg 63%
    15:00 +24°C° 1 mm 1 mps 619 mmHg 63%
    16:00 +23°C° 0.7 mm 1 mps 618 mmHg 65%
    17:00 +23°C° 0.7 mm 1 mps 618 mmHg 67%
    18:00 +22°C° 0.7 mm 1 mps 618 mmHg 69%
    19:00 +20°C° 0.2 mm 1 mps 618 mmHg 73%
    20:00 +18°C° 0.2 mm 1 mps 617 mmHg 76%
    21:00 +15°C° 0.2 mm 1 mps 616 mmHg 80%
    22:00 +15°C° 0 mm 1 mps 616 mmHg 80%
    23:00 +15°C° 0 mm 1 mps 616 mmHg 80%

    24 June, Monday

    Time Temperature Precipitation Wind Pressure Humidity
    00:00 +15°C° 0 mm 1 mps 616 mmHg 81%
    01:00 +15°C° 0 mm 1 mps 616 mmHg 81%
    02:00 +14°C° 0 mm 1 mps 616 mmHg 81%
    03:00 +14°C° 0 mm 1 mps 616 mmHg 80%
    04:00 +16°C° 0 mm 1 mps 617 mmHg 78%
    05:00 +18°C° 0 mm 1 mps 617 mmHg 76%
    06:00 +19°C° 0 mm 1 mps 618 mmHg 74%
    07:00 +20°C° 0.6 mm 1 mps 618 mmHg 71%
    08:00 +21°C° 0.6 mm 1 mps 619 mmHg 68%
    09:00 +21°C° 0.6 mm 2 mps 619 mmHg 65%
    10:00 +23°C° 1.7 mm 2 mps 619 mmHg 65%
    11:00 +23°C° 1.7 mm 2 mps 619 mmHg 64%
    12:00 +24°C° 1.7 mm 2 mps 619 mmHg 63%
    13:00 +24°C° 1.4 mm 2 mps 619 mmHg 62%
    14:00 +24°C° 1.4 mm 2 mps 619 mmHg 62%
    15:00 +24°C° 1.4 mm 2 mps 619 mmHg 61%
    16:00 +23°C° 1.3 mm 2 mps 618 mmHg 64%
    17:00 +23°C° 1.3 mm 2 mps 618 mmHg 67%
    18:00 +22°C° 1.3 mm 1 mps 618 mmHg 70%
    19:00 +20°C° 0.5 mm 1 mps 617 mmHg 74%
    20:00 +19°C° 0.5 mm 1 mps 617 mmHg 78%
    21:00 +16°C° 0.5 mm 1 mps 617 mmHg 82%
    22:00 +16°C° 0.2 mm 1 mps 617 mmHg 82%
    23:00 +16°C° 0.2 mm 1 mps 617 mmHg 82%
    Show more